[[{"header":{"parameterUnit":"m.s-1","parameterCategory":2,"la1":30.2991,"la2":30.254,"lo1":-89.0895,"lo2":-89.0444,"dy":0.0017,"dx":0.0017,"nx":28,"ny":28,"refTime":"2025-07-05T09:00:00:Z","depth":"0","parameterNumber":2,"parameterNumberName":"U-component_of_CURRENTS"},"data":[0,0,0,0,0,0,0,0,0,0,0,0,0,0,0,0,0,0,0,0,0,0,0,0,0,0,0,0,0,0,0,0,0,0,0,0,0,0,0,0,0,0,0,0,0,0,0,0,0,0,0,0,0,0,0,0,0,0,0.1393,0.1394,0,0.1432,0.1433,0.1433,0.1421,0.142,0.1419,0.1418,0.1435,0.1436,0.1437,0,0,0,0,0,0,0,0,0,0,0,0,0,0.1334,0.1335,0.1393,0.1394,0.1394,0.1432,0.1433,0.1433,0.1421,0.142,0.1419,0.1418,0.1434,0.1436,0.1437,0,0,0,0,0,0,0,0,0,0,0,0,0,0.1364,0.1335,0.1393,0.1393,0.1394,0.1432,0.1433,0.1433,0.1421,0.142,0.1419,0.1418,0.1434,0.1436,0.1437,0.1471,0,0,0.1443,0.1443,0,0,0,0,0,0,0,0,0.1362,0.1366,0.1393,0.1393,0.1394,0.1421,0.1418,0.1445,0.1421,0.141,0.1418,0.1417,0.1429,0.1432,0.1441,0.1472,0.1473,0.1443,0.1444,0.1445,0.1445,0,0,0,0,0,0,0,0.136,0.1365,0.1408,0.1393,0.1394,0.14,0.1403,0.1423,0.1425,0.1411,0.141,0.1416,0.1429,0.1439,0.1441,0.1473,0.1443,0.1444,0.1445,0.1446,0.1551,0.1553,0,0,0,0,0,0,0.1357,0.1363,0.1407,0.1409,0.1376,0.1402,0.1405,0.1413,0.1425,0.1426,0.1417,0.1415,0.1437,0.1439,0.1441,0.1496,0.1445,0.1446,0.1447,0.1549,0.1551,0.1553,0,0,0,0,0,0,0.1356,0.1361,0.1405,0.1387,0.1393,0.1404,0.1413,0.1414,0.1422,0.143,0.143,0.1423,0.1436,0.1439,0.1466,0.1496,0.1447,0.1449,0.1547,0.155,0.1552,0.1597,0,0,0,0,0,0,0.1354,0.136,0.1368,0.1387,0.1394,0.1431,0.1414,0.1416,0.1428,0.1426,0.1436,0.1436,0.1435,0.1463,0.1467,0.1498,0.145,0.1545,0.1548,0.1552,0.1593,0.1601,0.1607,0,0,0,0,0,0.1352,0.1369,0.1368,0.1374,0.1403,0.1432,0.1437,0.144,0.1429,0.144,0.1448,0.1435,0.1487,0.1466,0.1471,0.1502,0.1543,0.1548,0.1551,0.159,0.1599,0.1607,0,0,0,0,0,0,0.1346,0.1371,0.1369,0.1392,0.1411,0.143,0.1445,0.1444,0.146,0.1454,0.1456,0.1458,0.1492,0.1495,0.1472,0.1544,0.1515,0.152,0.1543,0.1551,0.1558,0.16,0.1451,0,0,0,0,0,0.135,0.137,0.1389,0.1408,0.1419,0.1432,0.1444,0.1443,0.1459,0.1464,0.147,0.1486,0.1515,0.1529,0.1546,0.1588,0.1677,0.1613,0.1619,0.1625,0.1664,0.1823,0.1849,0.1566,0.1566,0.1566,0,0,0.1355,0.1369,0.1381,0.1409,0.1424,0.1445,0.1436,0.1455,0.1475,0.1465,0.1494,0.1505,0.153,0.1573,0.1589,0.1578,0.1757,0.163,0.1635,0.1672,0.183,0.1858,0.1883,0.1569,0.1568,0.1568,0,0,0.137,0.1387,0.1404,0.1423,0.1443,0.1457,0.1463,0.1481,0.1493,0.1523,0.1526,0.1569,0.159,0.1634,0.1655,0.1718,0.1783,0.1707,0.1784,0.1936,0.1962,0.1985,0.2157,0.2195,0.1717,0.1717,0.1717,0,0.1372,0.1396,0.1415,0.1434,0.1456,0.1463,0.1487,0.1507,0.153,0.1569,0.1534,0.1635,0.1633,0.1738,0.1749,0.1737,0.1843,0.1744,0.1949,0.1974,0.1997,0.2167,0.2209,0.1719,0.1719,0.1719,0.1718,0,0.1396,0.1416,0.1432,0.1461,0.1489,0.1512,0.1542,0.1574,0.1585,0.1614,0.1705,0.1726,0.1808,0.1796,0.1787,0.1948,0.1977,0.1935,0.1931,0.2029,0.2201,0.2244,0.1723,0.1722,0.1721,0.1721,0,0,0.14,0.144,0.1442,0.1475,0.1506,0.1542,0.1589,0.166,0.1742,0.1752,0.1877,0.1903,0.1943,0.1974,0.1983,0.209,0.2326,0.2085,0.2091,0.2264,0.2707,0.2707,0.2754,0.2324,0.2331,0.2337,0.277,0,0.1413,0.1454,0.147,0.153,0.1568,0.1606,0.1672,0.1739,0.1803,0.1925,0.1975,0.2081,0.2005,0.2073,0.217,0.2291,0.2438,0.2215,0.2581,0.2593,0.2588,0.2803,0.2727,0.3105,0.2812,0.2819,0.2824,0,0.1435,0.1464,0.1517,0.1609,0.1632,0.1674,0.1824,0.188,0.2035,0.2095,0.2211,0.2268,0.2437,0.2349,0.2652,0.2519,0.2638,0.2713,0.2731,0.2751,0.2673,0.2956,0.3194,0.3112,0.2891,0.2886,0.2881,0,0.147,0.151,0.1562,0.1585,0.168,0.174,0.1799,0.1941,0.2047,0.2234,0.2354,0.2525,0.2658,0.2819,0.2943,0.2847,0.3282,0.3173,0.3299,0.3301,0.3322,0.3313,0.3533,0.3434,0.3433,0.3432,0.3431,0,0.1514,0.157,0.1584,0.1635,0.1748,0.1783,0.1947,0.204,0.2208,0.2363,0.246,0.2627,0.2783,0.3008,0.3094,0.3361,0.3429,0.3402,0.3441,0.3333,0.3321,0.3311,0.3219,0.3448,0.3444,0.3441,0.3439,0,0.1622,0.1601,0.1696,0.1762,0.1785,0.1888,0.2033,0.2155,0.2292,0.2511,0.2586,0.2804,0.3085,0.3253,0.3552,0.3585,0.373,0.3869,0.3737,0.3751,0.3739,0.365,0.378,0.3662,0.4133,0.4136,0.4139,0,0.1713,0.1754,0.1811,0.1857,0.1903,0.2016,0.21,0.221,0.2323,0.26,0.2712,0.3032,0.3223,0.3679,0.3834,0.4105,0.3893,0.4163,0.3942,0.3819,0.3751,0.3496,0.3364,0.4016,0.4017,0.4018,0.4019,0,0.1918,0.1913,0.1974,0.2027,0.2095,0.2174,0.2272,0.236,0.249,0.2657,0.2865,0.304,0.3466,0.3702,0.4046,0.4162,0.3959,0.4192,0.4122,0.3761,0.3449,0.3323,0.3649,0.4029,0.4028,0.4027,0.4027,0.4026,0.2088,0.2139,0.2148,0.2206,0.2256,0.2276,0.2326,0.2408,0.2543,0.2729,0.2899,0.3141,0.351,0.3974,0.4082,0.4227,0.4064,0.4147,0.4091,0.3874,0.3624,0.3976,0.4325,0.4325,0.4326,0.4327,0.4327,0,0.2242,0.223,0.2312,0.2315,0.2333,0.2333,0.2394,0.241,0.2492,0.2718,0.2877,0.327,0.3581,0.387,0.4165,0.4126,0.3895,0.4047,0.3679,0.3579,0.4013,0.3865,0.4056,0.4056,0.4057,0.4057,0.4057,0.4057,0.231,0.2349,0.233,0.2339,0.2333,0.2312,0.2309,0.2347,0.247,0.2681,0.2895,0.3109,0.3502,0.393,0.4043,0.3982,0.3658,0.3569,0.3474,0.3789,0.379,0.3791,0.3633,0.3773,0.3773,0.2896,0.2889,0.2885]},{"header":{"parameterUnit":"m.s-1","parameterCategory":2,"la1":30.2991,"la2":30.254,"lo1":-89.0895,"lo2":-89.0444,"dy":0.0017,"dx":0.0017,"nx":28,"ny":28,"refTime":"2025-07-05T09:00:00:Z","depth":"0","parameterNumber":3,"parameterNumberName":"V-component_of_CURRENTS"},"data":[0,0,0,0,0,0,0,0,0,0,0,0,0,0,0,0,0,0,0,0,0,0,0,0,0,0,0,0,0,0,0,0,0,0,0,0,0,0,0,0,0,0,0,0,0,0,0,0,0,0,0,0,0,0,0,0,0,0,-0.043,-0.0431,0,-0.0522,-0.0524,-0.0525,-0.0599,-0.0599,-0.06,-0.06,-0.067,-0.0672,-0.0673,0,0,0,0,0,0,0,0,0,0,0,0,0,-0.0389,-0.0389,-0.043,-0.0431,-0.0432,-0.0522,-0.0524,-0.0525,-0.0599,-0.0599,-0.06,-0.0601,-0.067,-0.0671,-0.0673,0,0,0,0,0,0,0,0,0,0,0,0,0,-0.0438,-0.0389,-0.043,-0.0478,-0.0484,-0.0522,-0.0524,-0.0525,-0.0598,-0.0599,-0.06,-0.0601,-0.0669,-0.0671,-0.0673,-0.0666,0,0,-0.0679,-0.068,0,0,0,0,0,0,0,0,-0.0435,-0.0439,-0.047,-0.0475,-0.0481,-0.0549,-0.0535,-0.0571,-0.0598,-0.0556,-0.06,-0.0602,-0.0626,-0.0632,-0.0649,-0.067,-0.0673,-0.0679,-0.068,-0.0681,-0.0682,0,0,0,0,0,0,0,-0.0431,-0.0436,-0.0468,-0.0471,-0.0478,-0.0521,-0.0528,-0.0543,-0.0585,-0.056,-0.0565,-0.0573,-0.0629,-0.0647,-0.0651,-0.0674,-0.0679,-0.0681,-0.0682,-0.0683,-0.0679,-0.0678,0,0,0,0,0,0,-0.0412,-0.0432,-0.0465,-0.0471,-0.0458,-0.052,-0.0529,-0.0527,-0.0586,-0.0596,-0.0572,-0.0576,-0.0643,-0.0649,-0.0654,-0.0611,-0.0681,-0.0683,-0.0684,-0.068,-0.0679,-0.0677,0,0,0,0,0,0,-0.0411,-0.0414,-0.0461,-0.0453,-0.0462,-0.0519,-0.0518,-0.0528,-0.0545,-0.0595,-0.0605,-0.0577,-0.0644,-0.0651,-0.0659,-0.0616,-0.0684,-0.0686,-0.0682,-0.068,-0.0678,-0.0551,0,0,0,0,0,0,-0.0409,-0.0412,-0.0404,-0.0451,-0.0462,-0.0469,-0.0517,-0.053,-0.0548,-0.0554,-0.0602,-0.061,-0.0646,-0.0656,-0.0661,-0.062,-0.0687,-0.0683,-0.0681,-0.0679,-0.0556,-0.0545,-0.0535,0,0,0,0,0,-0.0407,-0.0387,-0.0403,-0.0407,-0.0448,-0.0468,-0.0477,-0.0523,-0.0547,-0.0543,-0.0578,-0.0609,-0.0645,-0.0656,-0.0663,-0.0621,-0.0684,-0.0681,-0.0679,-0.0561,-0.0547,-0.0535,0,0,0,0,0,0,-0.0357,-0.0394,-0.0412,-0.0402,-0.0427,-0.048,-0.0482,-0.0512,-0.0539,-0.0544,-0.0595,-0.0605,-0.0596,-0.0629,-0.0641,-0.0615,-0.0668,-0.0666,-0.0577,-0.0563,-0.0553,-0.0489,-0.0689,0,0,0,0,0,-0.0342,-0.0342,-0.0379,-0.037,-0.0379,-0.0428,-0.0442,-0.0471,-0.0502,-0.0516,-0.0548,-0.0577,-0.0589,-0.0593,-0.0615,-0.0598,-0.06,-0.0577,-0.0566,-0.0556,-0.051,-0.0496,-0.0478,-0.0668,-0.0668,-0.0668,0,0,-0.032,-0.034,-0.034,-0.0361,-0.0386,-0.0379,-0.0439,-0.045,-0.0434,-0.0516,-0.0502,-0.0541,-0.0578,-0.0562,-0.056,-0.0583,-0.0503,-0.0552,-0.0543,-0.0502,-0.0491,-0.0472,-0.0455,-0.0666,-0.0666,-0.0667,0,0,-0.0277,-0.0291,-0.028,-0.0291,-0.0319,-0.034,-0.0337,-0.0378,-0.0385,-0.0382,-0.0432,-0.0436,-0.0468,-0.0472,-0.0481,-0.0419,-0.045,-0.0439,-0.0323,-0.0311,-0.0294,-0.0279,-0.025,-0.0234,-0.0428,-0.0427,-0.0427,0,-0.0248,-0.0234,-0.0278,-0.0266,-0.0254,-0.0313,-0.028,-0.0295,-0.0331,-0.0304,-0.0359,-0.0362,-0.0412,-0.0356,-0.0345,-0.0388,-0.0385,-0.0369,-0.0292,-0.0278,-0.0265,-0.024,-0.0223,-0.0421,-0.0422,-0.0422,-0.0423,0,-0.0203,-0.0184,-0.0173,-0.0171,-0.0164,-0.0145,-0.0162,-0.0148,-0.0166,-0.0174,-0.0132,-0.0196,-0.0183,-0.0214,-0.0264,-0.0188,-0.0216,-0.0284,-0.0318,-0.0238,-0.0217,-0.0202,-0.0412,-0.0414,-0.0416,-0.0418,0,0,-0.0138,-0.014,-0.0133,-0.0094,-0.0104,-0.0078,-0.0038,0.0007,0.0077,0.0029,0.0125,0.0073,0.005,0.004,-0.0022,-0.0021,0.0047,-0.0104,-0.0106,-0.0057,0.0097,0.0094,0.0109,-0.0013,-0.001,-0.0007,0.0078,0,-0.008,-0.0025,-0.0042,0.0046,0.009,0.0079,0.0141,0.0175,0.0192,0.0265,0.0225,0.0271,0.0143,0.0163,0.0146,0.0074,0.0091,0.0032,-0.0001,-0.0,0.0,0.0128,0.0109,0.0186,0.0092,0.0094,0.0096,0,-0.0012,0.0019,0.0106,0.0198,0.0221,0.027,0.04,0.0443,0.0515,0.0533,0.0566,0.0529,0.0547,0.0411,0.0368,0.0335,0.0248,0.0175,0.0175,0.0149,0.0026,0.0087,0.0215,-0.003,0.0118,0.0116,0.0115,0,0.0091,0.0147,0.0233,0.0255,0.0329,0.0402,0.0456,0.054,0.0627,0.0719,0.0794,0.0784,0.0804,0.0698,0.0537,0.0464,0.0486,0.0357,0.0287,0.0285,0.0257,0.0248,0.0165,0.0357,0.0357,0.0357,0.0357,0,0.0191,0.0276,0.0293,0.0351,0.0498,0.0515,0.069,0.0744,0.0856,0.0986,0.0946,0.1038,0.0873,0.0844,0.0663,0.0554,0.0588,0.037,0.0329,0.0299,0.0293,0.0065,-0.0085,0.036,0.0359,0.0359,0.0358,0,0.0328,0.0323,0.0439,0.0515,0.0553,0.067,0.0823,0.095,0.103,0.1201,0.1243,0.1266,0.123,0.1073,0.0925,0.0742,0.0488,0.0558,0.055,0.0507,0.0185,0.0044,-0.0019,-0.0131,0.0511,0.0512,0.0513,0,0.0418,0.0472,0.0561,0.0626,0.0674,0.0822,0.0933,0.1037,0.1163,0.1329,0.1425,0.1464,0.1487,0.1314,0.1038,0.0816,0.055,0.0625,0.0475,0.023,0.0041,-0.0065,-0.0164,0.0485,0.0485,0.0485,0.0486,0,0.0583,0.0591,0.0666,0.0772,0.0887,0.1028,0.118,0.1294,0.142,0.1548,0.1677,0.1713,0.1597,0.1398,0.113,0.0914,0.0444,0.0624,0.037,0.005,-0.0066,-0.0216,0.0363,0.0488,0.0488,0.0488,0.0488,0.0488,0.0697,0.0756,0.0801,0.0918,0.1043,0.1182,0.1289,0.1435,0.1605,0.1766,0.1819,0.1905,0.1673,0.1315,0.1002,0.0466,0.0454,0.0249,0.0115,0.0044,-0.0108,0.0503,0.0565,0.0566,0.0566,0.0566,0.0566,0,0.0773,0.0812,0.0935,0.104,0.1169,0.1219,0.1412,0.1497,0.1643,0.1848,0.1944,0.1954,0.1542,0.1129,0.0482,0.0042,-0.0171,-0.0219,-0.0411,-0.048,0.007,0.0019,-0.0033,-0.0033,-0.0033,-0.0032,-0.0032,-0.0032,0.0804,0.0881,0.0919,0.1096,0.1184,0.1323,0.1408,0.154,0.1698,0.1913,0.2057,0.2176,0.1951,0.0681,-0.0257,-0.05,-0.0874,-0.0908,-0.1081,-0.0778,-0.0747,-0.0717,-0.0801,-0.1024,-0.1025,-0.1596,-0.1602,-0.1607]}],[{"header":{"parameterUnit":"m.s-1","parameterCategory":2,"la1":30.2991,"la2":30.254,"lo1":-89.0895,"lo2":-89.0444,"dy":0.0017,"dx":0.0017,"nx":28,"ny":28,"refTime":"2025-07-05T09:00:00:Z","depth":"2","parameterNumber":2,"parameterNumberName":"U-component_of_CURRENTS"},"data":[0,0,0,0,0,0,0,0,0,0,0,0,0,0,0,0,0,0,0,0,0,0,0,0,0,0,0,0,0,0,0,0,0,0,0,0,0,0,0,0,0,0,0,0,0,0,0,0,0,0,0,0,0,0,0,0,0,0,0.1515,0.1516,0,0.158,0.158,0.1581,0.1588,0.1587,0.1586,0.1586,0.1648,0.1651,0.1653,0,0,0,0,0,0,0,0,0,0,0,0,0,0.1409,0.1411,0.1515,0.1516,0.1517,0.158,0.158,0.1581,0.1588,0.1587,0.1586,0.1585,0.1648,0.165,0.1653,0,0,0,0,0,0,0,0,0,0,0,0,0,0.1462,0.1411,0.1515,0.1528,0.1529,0.1579,0.158,0.1582,0.1588,0.1587,0.1586,0.1585,0.1647,0.165,0.1654,0.1695,0,0,0.1664,0.1665,0,0,0,0,0,0,0,0,0.1459,0.1466,0.1525,0.1527,0.1529,0.1575,0.1566,0.1619,0.1588,0.1566,0.1586,0.1584,0.1624,0.163,0.1644,0.1698,0.17,0.1664,0.1666,0.1668,0.1669,0,0,0,0,0,0,0,0.1456,0.1464,0.1541,0.1526,0.1528,0.1534,0.154,0.1576,0.16,0.1567,0.1568,0.1576,0.1625,0.1641,0.1645,0.1701,0.1664,0.1667,0.1669,0.1671,0.1878,0.1881,0,0,0,0,0,0,0.1449,0.146,0.1539,0.1543,0.1491,0.1537,0.1544,0.1561,0.1599,0.1604,0.1577,0.1576,0.1635,0.1641,0.1648,0.1769,0.1668,0.1671,0.1673,0.1874,0.1878,0.1882,0,0,0,0,0,0,0.1446,0.1456,0.1536,0.1502,0.1513,0.1539,0.1559,0.1563,0.1583,0.1606,0.1611,0.1593,0.1635,0.1643,0.1707,0.1768,0.1673,0.1676,0.187,0.1876,0.188,0.1966,0,0,0,0,0,0,0.1443,0.1455,0.1468,0.1502,0.1514,0.1579,0.156,0.1565,0.1589,0.1589,0.1622,0.1627,0.1634,0.1702,0.171,0.1771,0.1678,0.1866,0.1873,0.1879,0.1959,0.1974,0.1986,0,0,0,0,0,0.1439,0.1469,0.1469,0.1478,0.1531,0.158,0.1588,0.1602,0.1591,0.1614,0.1644,0.1626,0.1749,0.1707,0.1716,0.178,0.1863,0.1871,0.1878,0.1953,0.1971,0.1986,0,0,0,0,0,0,0.1432,0.1473,0.1473,0.1514,0.1547,0.1582,0.1606,0.161,0.1651,0.1654,0.1663,0.1672,0.1754,0.1759,0.1712,0.1862,0.1806,0.1816,0.186,0.1877,0.189,0.1867,0.1681,0,0,0,0,0,0.1436,0.1469,0.1503,0.1537,0.1554,0.1579,0.16,0.1614,0.1651,0.1667,0.1693,0.1735,0.1795,0.1825,0.1869,0.1946,0.1949,0.1998,0.2011,0.2022,0.2013,0.2087,0.2105,0.1908,0.1907,0.1907,0,0,0.1441,0.1469,0.1487,0.1538,0.1563,0.1609,0.159,0.1635,0.1682,0.167,0.1745,0.178,0.1825,0.1917,0.1955,0.1928,0.2086,0.2032,0.2041,0.2025,0.2097,0.2116,0.2132,0.1913,0.1912,0.1911,0,0,0.1476,0.1496,0.1535,0.1568,0.1614,0.1638,0.1652,0.1698,0.1727,0.1797,0.1817,0.1886,0.1958,0.2018,0.2053,0.2169,0.2152,0.2191,0.2244,0.2317,0.2333,0.2347,0.2386,0.2403,0.2201,0.2201,0.2201,0,0.148,0.1533,0.1555,0.1603,0.1635,0.1653,0.1703,0.1746,0.181,0.1851,0.1831,0.1973,0.2009,0.2135,0.218,0.2199,0.222,0.2174,0.2332,0.2346,0.2359,0.2396,0.2413,0.2206,0.2206,0.2205,0.2205,0,0.1545,0.1587,0.1616,0.1681,0.1721,0.1771,0.1823,0.1875,0.1901,0.1942,0.2053,0.2106,0.2183,0.2227,0.2236,0.2367,0.2346,0.2336,0.2281,0.2384,0.2417,0.2433,0.2214,0.2212,0.221,0.2209,0,0,0.1561,0.1644,0.1655,0.1687,0.1765,0.1803,0.1894,0.1981,0.2037,0.2104,0.2183,0.2301,0.2309,0.235,0.2385,0.2453,0.2571,0.2433,0.2435,0.2454,0.2715,0.2537,0.2537,0.2589,0.2592,0.2595,0.2704,0,0.1605,0.169,0.173,0.1814,0.1858,0.191,0.1987,0.2068,0.2128,0.2211,0.2285,0.2368,0.2364,0.2404,0.2477,0.2548,0.2617,0.2541,0.2627,0.2629,0.2444,0.2551,0.2389,0.2458,0.272,0.2722,0.2724,0,0.1658,0.1706,0.1784,0.187,0.1896,0.1948,0.2059,0.2133,0.2255,0.2306,0.2395,0.2432,0.2557,0.252,0.2682,0.2633,0.2678,0.2719,0.2725,0.253,0.2481,0.2399,0.2477,0.2751,0.2749,0.2747,0.2745,0,0.1646,0.1747,0.1803,0.1834,0.1934,0.1982,0.2043,0.2159,0.2227,0.236,0.241,0.2541,0.2606,0.2692,0.2746,0.2737,0.2887,0.2889,0.2774,0.2762,0.2621,0.2589,0.3,0.3,0.3,0.2999,0.2999,0,0.1674,0.1718,0.1796,0.1823,0.1892,0.197,0.2056,0.2141,0.2259,0.2339,0.2441,0.2509,0.2653,0.2732,0.2781,0.2803,0.2919,0.2789,0.2785,0.2646,0.2616,0.2858,0.284,0.3003,0.3003,0.3002,0.3001,0,0.1642,0.1701,0.1757,0.1851,0.1881,0.1924,0.2038,0.21,0.2222,0.2325,0.2367,0.2525,0.2617,0.2707,0.2851,0.2831,0.288,0.2856,0.2653,0.2619,0.2706,0.2692,0.2773,0.2768,0.2764,0.276,0.2757,0,0.1629,0.1655,0.1741,0.1764,0.18,0.1874,0.1926,0.2065,0.2129,0.2313,0.2352,0.2479,0.2519,0.2629,0.2646,0.2683,0.2775,0.2538,0.2481,0.2699,0.2688,0.268,0.2673,0.236,0.2354,0.2349,0.2345,0,0.1576,0.1603,0.1634,0.1689,0.1735,0.1802,0.1885,0.1929,0.209,0.217,0.2272,0.2315,0.2404,0.2361,0.2376,0.2377,0.2512,0.243,0.2769,0.2397,0.2306,0.2295,0.2303,0.2301,0.2305,0.2308,0.2311,0.2313,0.1498,0.1508,0.1544,0.1598,0.1656,0.1708,0.1732,0.1815,0.1887,0.1973,0.2085,0.2096,0.2161,0.2074,0.2045,0.2049,0.2204,0.2167,0.2186,0.2209,0.2097,0.1997,0.1914,0.1916,0.1918,0.1919,0.1921,0,0.1382,0.142,0.1456,0.1509,0.1542,0.1619,0.1689,0.1687,0.1717,0.1797,0.1834,0.1694,0.1672,0.1751,0.1694,0.1691,0.1719,0.164,0.17,0.1744,0.1784,0.1652,0.1351,0.1349,0.1347,0.1345,0,0,0.1314,0.1312,0.1358,0.1381,0.1436,0.1455,0.148,0.1477,0.1516,0.1453,0.1453,0.1554,0.1675,0.1475,0.1471,0.1415,0.1565,0.136,0.1821,0.1934,0.1971,0.2091,0.1937,0,0,0,0,0]},{"header":{"parameterUnit":"m.s-1","parameterCategory":2,"la1":30.2991,"la2":30.254,"lo1":-89.0895,"lo2":-89.0444,"dy":0.0017,"dx":0.0017,"nx":28,"ny":28,"refTime":"2025-07-05T09:00:00:Z","depth":"2","parameterNumber":3,"parameterNumberName":"V-component_of_CURRENTS"},"data":[0,0,0,0,0,0,0,0,0,0,0,0,0,0,0,0,0,0,0,0,0,0,0,0,0,0,0,0,0,0,0,0,0,0,0,0,0,0,0,0,0,0,0,0,0,0,0,0,0,0,0,0,0,0,0,0,0,0,-0.0223,-0.0223,0,-0.0251,-0.0251,-0.0252,-0.0265,-0.0265,-0.0265,-0.0265,-0.032,-0.0321,-0.0323,0,0,0,0,0,0,0,0,0,0,0,0,0,-0.0229,-0.0229,-0.0223,-0.0223,-0.0223,-0.0251,-0.0251,-0.0252,-0.0265,-0.0265,-0.0265,-0.0265,-0.0319,-0.0321,-0.0323,0,0,0,0,0,0,0,0,0,0,0,0,0,-0.024,-0.0229,-0.0223,-0.0232,-0.0233,-0.0251,-0.0251,-0.0252,-0.0265,-0.0265,-0.0265,-0.0265,-0.0318,-0.0321,-0.0323,-0.0341,0,0,-0.033,-0.0331,0,0,0,0,0,0,0,0,-0.0239,-0.024,-0.0231,-0.0232,-0.0233,-0.0253,-0.0274,-0.0283,-0.0265,-0.0254,-0.0265,-0.0265,-0.0299,-0.0303,-0.031,-0.0343,-0.0346,-0.033,-0.0332,-0.0333,-0.0333,0,0,0,0,0,0,0,-0.0238,-0.0239,-0.0235,-0.0231,-0.0232,-0.0252,-0.0253,-0.0276,-0.0279,-0.0255,-0.0256,-0.0258,-0.03,-0.0308,-0.0311,-0.0346,-0.033,-0.0332,-0.0334,-0.0335,-0.037,-0.0369,0,0,0,0,0,0,-0.023,-0.0238,-0.0234,-0.0236,-0.0234,-0.0252,-0.0253,-0.0248,-0.0278,-0.0282,-0.0258,-0.0258,-0.0304,-0.0309,-0.0313,-0.0291,-0.0333,-0.0335,-0.0336,-0.037,-0.037,-0.0369,0,0,0,0,0,0,-0.023,-0.0229,-0.0233,-0.0237,-0.0239,-0.0251,-0.0246,-0.0249,-0.0252,-0.0279,-0.0284,-0.0258,-0.0304,-0.031,-0.0325,-0.0295,-0.0336,-0.0338,-0.0371,-0.037,-0.0369,-0.0274,0,0,0,0,0,0,-0.023,-0.0229,-0.0225,-0.0236,-0.0238,-0.0237,-0.0246,-0.0249,-0.0253,-0.0254,-0.0281,-0.0286,-0.0304,-0.0321,-0.0327,-0.0299,-0.034,-0.0371,-0.037,-0.037,-0.0278,-0.0271,-0.0264,0,0,0,0,0,-0.023,-0.0224,-0.0225,-0.0224,-0.0231,-0.0237,-0.024,-0.025,-0.0253,-0.0253,-0.0268,-0.0285,-0.0319,-0.0322,-0.033,-0.0301,-0.0372,-0.0371,-0.037,-0.0281,-0.0272,-0.0264,0,0,0,0,0,0,-0.0226,-0.0225,-0.0226,-0.022,-0.0225,-0.0239,-0.024,-0.0247,-0.0259,-0.0259,-0.0284,-0.029,-0.0291,-0.0317,-0.032,-0.0311,-0.0347,-0.0347,-0.0277,-0.0269,-0.0262,-0.0224,-0.0342,0,0,0,0,0,-0.0222,-0.0217,-0.022,-0.0216,-0.0216,-0.0227,-0.0232,-0.0236,-0.0248,-0.0253,-0.0269,-0.0286,-0.0293,-0.0297,-0.0317,-0.0315,-0.035,-0.0303,-0.0295,-0.0289,-0.0265,-0.0299,-0.0292,-0.0366,-0.0366,-0.0366,0,0,-0.0221,-0.0219,-0.0217,-0.0215,-0.022,-0.0205,-0.023,-0.0231,-0.021,-0.0258,-0.0241,-0.0267,-0.0291,-0.0283,-0.0285,-0.0298,-0.0291,-0.0288,-0.0282,-0.0261,-0.0297,-0.0289,-0.0283,-0.0365,-0.0365,-0.0365,0,0,-0.0207,-0.0211,-0.0196,-0.0193,-0.0193,-0.0195,-0.0191,-0.0199,-0.0194,-0.0188,-0.0209,-0.0212,-0.0236,-0.0233,-0.0237,-0.0206,-0.0257,-0.022,-0.0145,-0.0178,-0.0172,-0.0167,-0.0216,-0.0216,-0.021,-0.021,-0.021,0,-0.0203,-0.0179,-0.0195,-0.0175,-0.016,-0.0183,-0.0154,-0.0153,-0.0162,-0.0144,-0.0171,-0.0178,-0.0202,-0.017,-0.0153,-0.0185,-0.0224,-0.0171,-0.0167,-0.0162,-0.0158,-0.021,-0.0211,-0.0205,-0.0206,-0.0206,-0.0207,0,-0.0172,-0.0149,-0.0141,-0.0113,-0.0105,-0.0088,-0.0081,-0.0068,-0.0068,-0.0063,-0.0043,-0.0079,-0.0075,-0.0086,-0.0105,-0.008,-0.0126,-0.0158,-0.0182,-0.0145,-0.0203,-0.0206,-0.0198,-0.02,-0.0202,-0.0203,0,0,-0.0151,-0.0122,-0.0113,-0.0081,-0.0065,-0.005,-0.001,0.0028,0.0069,0.0052,0.0097,0.0088,0.0066,0.0061,0.0027,0.0007,-0.0007,-0.0052,-0.0056,-0.009,-0.0096,-0.0171,-0.0183,-0.0044,-0.0044,-0.0043,-0.0153,0,-0.011,-0.0055,-0.005,0.0015,0.0049,0.0055,0.0101,0.0129,0.014,0.0171,0.0151,0.0168,0.0122,0.0124,0.0101,0.0019,-0.0007,0.0025,-0.0137,-0.0141,-0.0203,-0.0185,-0.0148,-0.0246,-0.0156,-0.0157,-0.0157,0,-0.006,-0.0028,0.0036,0.0103,0.012,0.0156,0.0232,0.0267,0.0303,0.0314,0.0324,0.029,0.0281,0.022,0.0118,0.0136,0.0041,-0.0033,-0.004,-0.0138,-0.022,-0.0267,-0.0255,-0.0162,-0.0162,-0.0162,-0.0161,0,-0.0016,0.0046,0.0103,0.0123,0.0182,0.0227,0.0267,0.0317,0.0369,0.0401,0.0425,0.0395,0.0379,0.0269,0.0118,0.0118,-0.0027,-0.0055,-0.0211,-0.022,-0.023,-0.024,-0.0125,-0.0125,-0.0125,-0.0125,-0.0124,0,0.0039,0.0089,0.0131,0.0165,0.0252,0.0278,0.0374,0.0412,0.0472,0.0534,0.0499,0.0516,0.039,0.0287,0.0143,-0.005,-0.0014,-0.0189,-0.0245,-0.0201,-0.0206,-0.0164,-0.0167,-0.0129,-0.0128,-0.0127,-0.0126,0,0.0072,0.0102,0.017,0.024,0.0274,0.0334,0.0441,0.051,0.0555,0.0627,0.0641,0.0612,0.0463,0.0294,0.0101,-0.0018,-0.0199,-0.028,-0.023,-0.0278,-0.0375,-0.0372,-0.0448,-0.0452,-0.0455,-0.0457,-0.0459,0,0.0084,0.0121,0.0212,0.0264,0.0299,0.0393,0.047,0.0551,0.0624,0.0675,0.0712,0.0606,0.0516,0.0199,-0.0029,-0.0303,-0.0306,-0.0423,-0.0407,-0.0357,-0.0404,-0.0396,-0.039,-0.0393,-0.0394,-0.0395,-0.0396,0,0.0098,0.0132,0.0186,0.0302,0.0389,0.0492,0.0602,0.0671,0.0758,0.0791,0.0796,0.0717,0.0428,0.017,-0.0177,-0.0343,-0.0375,-0.0456,-0.0409,-0.0323,-0.0316,-0.0358,-0.0351,-0.0406,-0.0405,-0.0404,-0.0403,-0.0403,0.01,0.0147,0.0236,0.0353,0.0457,0.0593,0.0691,0.0774,0.0869,0.0913,0.0825,0.0712,0.045,-0.0013,-0.027,-0.0496,-0.0504,-0.0555,-0.0547,-0.0539,-0.0518,-0.0517,-0.0642,-0.0642,-0.0643,-0.0643,-0.0643,0,0.0123,0.0199,0.029,0.0447,0.0576,0.0638,0.0792,0.0866,0.0958,0.0929,0.0876,0.0586,0.0295,0.0015,-0.033,-0.0563,-0.053,-0.062,-0.0509,-0.0501,-0.0493,-0.0465,-0.0577,-0.0578,-0.0578,-0.0578,0,0,0.0144,0.0247,0.0316,0.0538,0.0656,0.0845,0.0943,0.1,0.1021,0.0942,0.0866,0.0696,0.0366,0.0129,-0.0187,-0.0362,-0.0365,-0.0396,-0.043,-0.0255,-0.0243,-0.045,-0.0398,0,0,0,0,0]}],[{"header":{"parameterUnit":"m.s-1","parameterCategory":2,"la1":30.2991,"la2":30.254,"lo1":-89.0895,"lo2":-89.0444,"dy":0.0017,"dx":0.0017,"nx":28,"ny":28,"refTime":"2025-07-05T09:00:00:Z","depth":"4","parameterNumber":2,"parameterNumberName":"U-component_of_CURRENTS"},"data":[0,0,0,0,0,0,0,0,0,0,0,0,0,0,0,0,0,0,0,0,0,0,0,0,0,0,0,0,0,0,0,0,0,0,0,0,0,0,0,0,0,0,0,0,0,0,0,0,0,0,0,0,0,0,0,0,0,0,0.0704,0.0704,0,0.0747,0.0748,0.0749,0.0791,0.0791,0.0792,0.0792,0.0822,0.0823,0.0824,0,0,0,0,0,0,0,0,0,0,0,0,0,0.0705,0.0704,0.0704,0.0704,0.0704,0.0747,0.0748,0.0749,0.0791,0.0791,0.0792,0.0792,0.0822,0.0823,0.0824,0,0,0,0,0,0,0,0,0,0,0,0,0,0.0725,0.0704,0.0704,0.0727,0.073,0.0747,0.0748,0.0749,0.0791,0.0791,0.0792,0.0792,0.0822,0.0823,0.0824,0.0824,0,0,0.0827,0.0827,0,0,0,0,0,0,0,0,0.0724,0.0726,0.0724,0.0726,0.0728,0.0761,0.076,0.0772,0.0791,0.0772,0.0792,0.0792,0.0798,0.0801,0.0814,0.0826,0.0827,0.0827,0.0827,0.0828,0.0828,0,0,0,0,0,0,0,0.0723,0.0724,0.0725,0.0724,0.0726,0.0752,0.0755,0.0763,0.0785,0.0774,0.0776,0.0774,0.0799,0.0813,0.0815,0.0827,0.0827,0.0828,0.0828,0.0828,0.0932,0.0934,0,0,0,0,0,0,0.0706,0.0723,0.0723,0.0726,0.0722,0.0751,0.0755,0.0753,0.0786,0.079,0.0774,0.0776,0.0811,0.0814,0.0816,0.0883,0.0828,0.0829,0.0829,0.093,0.0933,0.0935,0,0,0,0,0,0,0.0706,0.0706,0.0722,0.0722,0.0726,0.075,0.0748,0.0754,0.0799,0.0785,0.079,0.0816,0.0812,0.0815,0.0864,0.0882,0.0829,0.083,0.0927,0.0931,0.0934,0.0976,0,0,0,0,0,0,0.0706,0.0706,0.0719,0.0721,0.0725,0.0747,0.0748,0.0754,0.0794,0.0798,0.0823,0.0824,0.0812,0.0863,0.0865,0.0883,0.0831,0.0925,0.0929,0.0933,0.0972,0.098,0.0988,0,0,0,0,0,0.0706,0.0712,0.0719,0.072,0.0735,0.0748,0.0754,0.0774,0.0796,0.0818,0.085,0.0825,0.089,0.0866,0.0868,0.0886,0.0923,0.0928,0.0932,0.0968,0.0979,0.0987,0,0,0,0,0,0,0.0716,0.0716,0.0725,0.0731,0.0747,0.0754,0.0775,0.0796,0.0841,0.0845,0.0856,0.086,0.0902,0.0902,0.0876,0.0932,0.0901,0.0906,0.0928,0.0937,0.0945,0.0957,0.0831,0,0,0,0,0,0.0723,0.0734,0.0736,0.0747,0.0754,0.0777,0.0793,0.0798,0.0824,0.0846,0.0872,0.0897,0.0919,0.0937,0.0946,0.0986,0.0964,0.1001,0.1008,0.1015,0.1029,0.1007,0.1012,0.0951,0.0951,0.0951,0,0,0.0729,0.0732,0.0739,0.0752,0.0767,0.0786,0.0789,0.0805,0.0835,0.0839,0.0907,0.092,0.0936,0.0972,0.0992,0.0979,0.1024,0.1021,0.1026,0.1037,0.1012,0.1018,0.1022,0.0954,0.0954,0.0953,0,0,0.0738,0.0751,0.0763,0.0784,0.0799,0.0803,0.0818,0.0841,0.087,0.0943,0.0933,0.0969,0.1039,0.1025,0.1037,0.11,0.1059,0.1109,0.1163,0.1141,0.1145,0.1148,0.1128,0.113,0.112,0.112,0.112,0,0.075,0.0758,0.0771,0.0795,0.0814,0.082,0.084,0.0869,0.0912,0.0936,0.0979,0.1058,0.1065,0.108,0.1116,0.1112,0.1102,0.1119,0.1147,0.115,0.1152,0.1132,0.1132,0.1123,0.1122,0.1122,0.1122,0,0.0764,0.0787,0.0798,0.083,0.0856,0.0867,0.0895,0.0928,0.0986,0.1018,0.108,0.1109,0.1156,0.1162,0.1179,0.1188,0.1175,0.1148,0.1113,0.116,0.1137,0.1136,0.1126,0.1125,0.1125,0.1124,0,0,0.0741,0.0795,0.0803,0.083,0.087,0.0887,0.0935,0.0969,0.1008,0.1083,0.1144,0.1204,0.1221,0.1236,0.1223,0.1227,0.1242,0.1221,0.1218,0.1186,0.1204,0.1189,0.1187,0.122,0.1221,0.1221,0.1179,0,0.0747,0.0791,0.0819,0.087,0.0892,0.0926,0.0976,0.1014,0.1077,0.1136,0.1165,0.1224,0.1244,0.1274,0.1281,0.1248,0.1246,0.1257,0.1179,0.1177,0.1143,0.1187,0.1222,0.1179,0.1179,0.1178,0.1178,0,0.0747,0.0776,0.0823,0.0888,0.0903,0.0947,0.1014,0.1057,0.1119,0.1179,0.1235,0.1261,0.1285,0.13,0.1282,0.1294,0.1271,0.1247,0.1243,0.1216,0.1162,0.1125,0.1177,0.1177,0.1177,0.1178,0.1178,0,0.0712,0.0779,0.0815,0.0843,0.0916,0.0959,0.1004,0.1076,0.1115,0.1196,0.1245,0.1276,0.1307,0.1289,0.1295,0.1288,0.127,0.1228,0.1181,0.1178,0.118,0.1177,0.1206,0.1206,0.1206,0.1206,0.1206,0,0.0693,0.0725,0.0813,0.0835,0.0888,0.0961,0.1023,0.1077,0.1153,0.1193,0.1261,0.1292,0.1315,0.1317,0.1296,0.1261,0.1266,0.1205,0.1172,0.1201,0.1201,0.1179,0.1176,0.1204,0.1205,0.1205,0.1205,0,0.064,0.0698,0.074,0.0833,0.0872,0.0916,0.1024,0.1061,0.1152,0.1205,0.1233,0.1307,0.1326,0.1329,0.1299,0.126,0.1217,0.1193,0.1247,0.1215,0.1133,0.1133,0.1117,0.1117,0.1116,0.1116,0.1115,0,0.0607,0.0625,0.0725,0.0757,0.0806,0.0888,0.0934,0.1045,0.1088,0.1201,0.1212,0.1275,0.1312,0.1259,0.1271,0.1224,0.1207,0.1171,0.1147,0.1157,0.1126,0.1128,0.1129,0.1114,0.1114,0.1114,0.1114,0,0.0531,0.0579,0.0619,0.0688,0.0753,0.0811,0.09,0.0927,0.1047,0.1125,0.118,0.1204,0.1227,0.1229,0.1223,0.1179,0.119,0.1164,0.1164,0.114,0.1152,0.1123,0.1125,0.1111,0.1112,0.1112,0.1112,0,0.0472,0.0487,0.0554,0.0616,0.0683,0.0737,0.079,0.0865,0.0928,0.1068,0.1078,0.1152,0.1219,0.1205,0.1188,0.1172,0.1137,0.1081,0.1084,0.1087,0.1101,0.1114,0.1045,0,0,0,0,0,0.041,0.044,0.0479,0.0555,0.0616,0.0668,0.0765,0.0822,0.0938,0.0954,0.1026,0.1053,0.1082,0.1114,0.1086,0.1149,0.1123,0.111,0.1055,0.1099,0.1102,0.1125,0,0,0,0,0,0,0.0376,0.0415,0.0455,0.0496,0.0535,0.0605,0.0667,0.0745,0.0772,0.0886,0.0905,0.0992,0.1022,0.1082,0.1064,0.1072,0.1018,0.1158,0.1155,0.1098,0.11,0.1102,0.1126,0,0,0,0,0]},{"header":{"parameterUnit":"m.s-1","parameterCategory":2,"la1":30.2991,"la2":30.254,"lo1":-89.0895,"lo2":-89.0444,"dy":0.0017,"dx":0.0017,"nx":28,"ny":28,"refTime":"2025-07-05T09:00:00:Z","depth":"4","parameterNumber":3,"parameterNumberName":"V-component_of_CURRENTS"},"data":[0,0,0,0,0,0,0,0,0,0,0,0,0,0,0,0,0,0,0,0,0,0,0,0,0,0,0,0,0,0,0,0,0,0,0,0,0,0,0,0,0,0,0,0,0,0,0,0,0,0,0,0,0,0,0,0,0,0,0.0033,0.0033,0,-0.0002,-0.0003,-0.0003,-0.0038,-0.0038,-0.0038,-0.0038,-0.0087,-0.0088,-0.0089,0,0,0,0,0,0,0,0,0,0,0,0,0,0.0029,0.0029,0.0033,0.0033,0.0033,-0.0002,-0.0003,-0.0004,-0.0038,-0.0038,-0.0038,-0.0038,-0.0086,-0.0088,-0.0089,0,0,0,0,0,0,0,0,0,0,0,0,0,0.0013,0.0029,0.0033,0.0013,0.0012,-0.0002,-0.0003,-0.0004,-0.0038,-0.0038,-0.0038,-0.0038,-0.0086,-0.0087,-0.0089,-0.0094,0,0,-0.0094,-0.0095,0,0,0,0,0,0,0,0,0.0014,0.0013,0.0017,0.0015,0.0013,-0.0013,-0.0022,-0.0034,-0.0037,-0.0022,-0.0038,-0.0038,-0.0061,-0.0065,-0.0075,-0.0096,-0.0098,-0.0094,-0.0095,-0.0096,-0.0097,0,0,0,0,0,0,0,0.0015,0.0014,0.0016,0.0016,0.0014,-0.0008,-0.001,-0.0025,-0.0042,-0.0023,-0.0025,-0.0024,-0.0063,-0.0073,-0.0076,-0.0099,-0.0094,-0.0096,-0.0097,-0.0097,-0.0169,-0.0169,0,0,0,0,0,0,0.0028,0.0016,0.0017,0.0015,0.0016,-0.0007,-0.001,-0.0007,-0.0042,-0.0046,-0.0024,-0.0026,-0.007,-0.0074,-0.0078,-0.0117,-0.0096,-0.0098,-0.0099,-0.0168,-0.0169,-0.017,0,0,0,0,0,0,0.0028,0.0029,0.0019,0.0017,0.0014,-0.0006,-0.0003,-0.0007,-0.0022,-0.0042,-0.0047,-0.0034,-0.007,-0.0076,-0.0095,-0.0118,-0.0098,-0.01,-0.0167,-0.0168,-0.0169,-0.0174,0,0,0,0,0,0,0.0028,0.0029,0.0031,0.0018,0.0015,0.0015,-0.0003,-0.0008,-0.0019,-0.0022,-0.0052,-0.0056,-0.0071,-0.0092,-0.0096,-0.012,-0.0101,-0.0166,-0.0167,-0.0169,-0.0173,-0.0175,-0.0178,0,0,0,0,0,0.0028,0.0035,0.0031,0.0031,0.002,0.0016,0.0012,-0.0005,-0.002,-0.0021,-0.0046,-0.0056,-0.0106,-0.0093,-0.0098,-0.0123,-0.0165,-0.0167,-0.0169,-0.0172,-0.0175,-0.0178,0,0,0,0,0,0,0.0028,0.0032,0.0027,0.0033,0.0028,0.0011,0.0008,-0.0006,-0.0027,-0.0031,-0.0058,-0.0064,-0.0092,-0.0104,-0.009,-0.015,-0.0141,-0.0144,-0.0142,-0.0145,-0.0147,-0.0164,-0.0103,0,0,0,0,0,0.0032,0.004,0.0037,0.004,0.004,0.0022,0.0016,0.0008,-0.0009,-0.002,-0.0042,-0.0071,-0.0104,-0.012,-0.014,-0.0166,-0.0186,-0.0189,-0.0191,-0.0193,-0.0211,-0.0255,-0.0263,-0.0176,-0.0176,-0.0176,0,0,0.0031,0.0035,0.0038,0.0041,0.0033,0.0029,0.0017,0.0015,-0.0,-0.002,-0.005,-0.0073,-0.011,-0.0143,-0.0158,-0.0157,-0.0225,-0.0196,-0.0197,-0.0214,-0.0258,-0.0266,-0.0274,-0.0178,-0.0177,-0.0177,0,0,0.0038,0.004,0.005,0.0046,0.0046,0.0037,0.0037,0.0023,0.0006,-0.002,-0.0046,-0.0084,-0.0123,-0.0161,-0.0186,-0.0215,-0.0231,-0.0221,-0.0253,-0.0294,-0.0302,-0.0309,-0.0327,-0.0336,-0.0228,-0.0228,-0.0228,0,0.0036,0.0046,0.0051,0.0054,0.0045,0.0039,0.0036,0.0019,-0.0002,-0.0024,-0.0029,-0.0116,-0.014,-0.0205,-0.0223,-0.0222,-0.0239,-0.0236,-0.0298,-0.0305,-0.0312,-0.0329,-0.0339,-0.0228,-0.0228,-0.0228,-0.0228,0,0.0049,0.0049,0.0053,0.0054,0.0048,0.0047,0.003,0.0017,-0.0008,-0.0035,-0.0094,-0.0135,-0.0192,-0.021,-0.0232,-0.03,-0.0292,-0.0289,-0.0288,-0.0321,-0.0337,-0.0347,-0.0229,-0.0229,-0.0229,-0.0228,0,0,0.0052,0.0062,0.006,0.0056,0.0046,0.0044,0.002,-0.0009,-0.0034,-0.0075,-0.0125,-0.0201,-0.0227,-0.0259,-0.0289,-0.034,-0.04,-0.0343,-0.0345,-0.0358,-0.048,-0.0432,-0.0438,-0.0406,-0.0409,-0.041,-0.0464,0,0.0054,0.0063,0.0063,0.0054,0.005,0.0033,0.0011,-0.0018,-0.0053,-0.0096,-0.0163,-0.0212,-0.0243,-0.0271,-0.0332,-0.0379,-0.0429,-0.0385,-0.045,-0.0452,-0.0404,-0.0449,-0.0417,-0.0471,-0.0473,-0.0475,-0.0476,0,0.0055,0.0063,0.006,0.0049,0.0046,0.0038,-0.0001,-0.0019,-0.0079,-0.0109,-0.0178,-0.0219,-0.0308,-0.032,-0.044,-0.0409,-0.0455,-0.0493,-0.0495,-0.0462,-0.0424,-0.0437,-0.0494,-0.0492,-0.0491,-0.049,-0.0489,0,0.0044,0.005,0.0048,0.0043,0.0036,0.0024,0.0016,-0.003,-0.0042,-0.0115,-0.0134,-0.0241,-0.0282,-0.0375,-0.0457,-0.0453,-0.0573,-0.0567,-0.0569,-0.0565,-0.0587,-0.0579,-0.0659,-0.0659,-0.0659,-0.0659,-0.0659,0,0.0032,0.0025,0.0047,0.0043,0.0045,0.0029,0.0017,-0.0007,-0.0043,-0.0055,-0.0136,-0.0168,-0.0301,-0.0377,-0.0461,-0.0541,-0.0574,-0.0592,-0.0588,-0.0584,-0.0576,-0.0593,-0.0584,-0.0661,-0.0661,-0.066,-0.066,0,0.0009,0.0017,0.0024,0.0035,0.004,0.0041,0.0049,0.0043,0.0006,-0.0012,-0.003,-0.0121,-0.0219,-0.0336,-0.0475,-0.0523,-0.0615,-0.0632,-0.0611,-0.0601,-0.0577,-0.0569,-0.0649,-0.0648,-0.0647,-0.0647,-0.0646,0,0.0002,0.0005,0.0035,0.0056,0.0063,0.0073,0.0085,0.0065,0.0067,0.0024,0.0021,-0.0074,-0.0142,-0.0294,-0.0428,-0.0579,-0.0594,-0.0632,-0.0633,-0.0595,-0.0583,-0.0575,-0.0568,-0.0645,-0.0645,-0.0644,-0.0644,0,0.0006,0.0016,0.0037,0.008,0.0103,0.0127,0.0144,0.0151,0.0132,0.0104,0.0073,-0.0017,-0.012,-0.0265,-0.0378,-0.0489,-0.0608,-0.0624,-0.0627,-0.0628,-0.0591,-0.0578,-0.0571,-0.0641,-0.0642,-0.0642,-0.0642,0,0.003,0.0047,0.0085,0.0114,0.0149,0.0174,0.0176,0.0189,0.0186,0.0146,0.0137,0.0015,-0.0064,-0.0217,-0.0327,-0.0428,-0.0455,-0.0478,-0.0488,-0.0493,-0.0433,-0.0362,-0.0354,0,0,0,0,0,0.0062,0.0084,0.0121,0.0156,0.0185,0.0196,0.0218,0.0216,0.0201,0.0198,0.0172,0.008,-0.0077,-0.016,-0.0252,-0.0327,-0.0486,-0.0438,-0.052,-0.0626,-0.0629,-0.0582,0,0,0,0,0,0,0.0095,0.0129,0.0131,0.0182,0.0204,0.0235,0.0245,0.0235,0.0231,0.0205,0.012,0.0075,-0.0089,-0.0022,-0.0249,-0.0285,-0.0343,-0.0521,-0.0522,-0.0624,-0.0627,-0.0629,-0.0582,0,0,0,0,0]}]]